Flag for United Kingdom Weather past 2 weeks in Lerwick (Shetland Islands), Scotland, United Kingdom

Now
56 °F

Fog.


Feels Like: 53 °F
Forecast: 57 / 65 °F
Wind: 10 mph from South

Location: Lerwick

Current Time: Jul 26, 2014 at 10:21:52 AM

Latest Report: Jul 26, 2014 at 9:00 AM


Visibility: 0 mi

Pressure: 30.06 "Hg

Humidity: 100%

Dew point: 56 °F

Location of Lerwick (Shetland Islands)Location

Historic Weather in Lerwick (Shetland Islands) — Graph

°F

Lerwick (Shetland Islands) temperature yesterday

Maximum temperature yesterday: 61 °F (at 1:00 PM)
Minimum temperature yesterday: 52 °F (at 1:00 AM)
Average temperature yesterday: 57 °F

Past Weeks' High & Low Weather Summary

 TemperatureHumidityPressure
High64 °F (Jul 22, 12:00 PM)100% (Jul 11, 10:00 PM)30.37 "Hg (Jul 11, 10:00 PM)
Low48 °F (Jul 16, 4:00 AM)68% (Jul 18, 2:00 PM)29.58 "Hg (Jul 15, 4:00 AM)
Average56 °F94%30.02 "Hg
* Reported Jul 11 9:00 AM — Jul 26 9:00 AM, Lerwick (Shetland Islands), Weather by CustomWeather, © 2014

Note: Actual official high and low records may vary slightly from our data, if they occured in-between our weather recording intervals... More about our weather records

Advertising

Lerwick (Shetland Islands) weather history for previous 24 hours

 ConditionsComfort  
Time TempWeatherWind HumidityBarometerVisibility
9:00 AM
Jul 26
56 °FFog.10 mph100%30.06 "Hg0 mi
8:00 AM56 °FFog.12 mph99%30.06 "Hg0 mi
7:00 AM56 °FFog.8 mph99%30.06 "Hg1 mi
6:00 AM56 °FFog.10 mph97%30.07 "Hg5 mi
5:00 AM57 °FLow clouds.14 mph95%30.06 "Hg9 mi
4:00 AM57 °FLow clouds.7 mph98%30.08 "Hg9 mi
3:00 AM56 °FDuststorm.8 mph99%30.09 "Hg1 mi
2:00 AM57 °FFog.9 mph99%30.10 "Hg4 mi
1:00 AM57 °FFog.8 mph99%30.11 "Hg5 mi
12:00 AM57 °FFog.8 mph98%30.12 "Hg4 mi
11:00 PM
Jul 25
57 °FFog.9 mph99%30.13 "Hg3 mi
10:00 PM57 °FFog.8 mph98%30.13 "Hg4 mi
9:00 PM58 °FFog.10 mph97%30.13 "Hg4 mi
8:00 PM59 °FLow clouds.8 mph94%30.13 "Hg9 mi
7:00 PM59 °FFog.8 mph97%30.13 "Hg2 mi
6:00 PM59 °FFog.8 mph97%30.14 "Hg4 mi
5:00 PM59 °FFog.10 mph96%30.16 "Hg4 mi
4:00 PM58 °FFog.13 mph95%30.17 "Hg4 mi
3:00 PM58 °FFog.10 mph95%30.18 "Hg1 mi
2:00 PM58 °FFog.13 mph92%30.19 "Hg1 mi
1:00 PM61 °FFog.10 mph85%30.19 "Hg2 mi
12:00 PM58 °FFog.12 mph94%30.21 "Hg1 mi
10:00 AM57 °FPartly sunny.8 mph93%30.22 "Hg11 mi
Weather by CustomWeather, © 2014

See weather overviewHow to use our weather pages